SCP
0 0 0 0 0 0 0 0 0 0 0 0 0 0 0 0 0 0 0 0 0 0 0 0 0 0 0 0 0 0 0 0 0 0 0 0 0 0 0 0 0 0 0
0 0 0 0 0 0 0 0 0 0 0 0 0 0 0 0 0 0 0 0 0 0 0 0 0 0 0 0 0 0 0 0 0 0 0 0 0 0 0 0 0 0 0
0 0 0 0 0 0 0 0 0 0 0 0 0 0 0 0 0 0 0 0 0 0 0 0 0 0 0 0 0 0 0 0 0 0 0 0 0 0 0 0 0 0 0
0 0 0 0 0 0 0 0 0 0 0 0 0 0 0 0 0 0 0 0 0 0 0 0 0 0 0 0 0 0 0 0 0 0 0 0 0 0 0 0 0 0 0
0 0 0 0 0 0 0 0 0 0 0 0 0 0 0 0 0 0 0 0 0 0 0 0 0 0 0 0 0 0 0 0 0 0 0 0 0 0 0 0 0 0 0
0 0 0 0 0 0 0 0 0 0 0 0 0 0 0 0 0 0 0 0 0 0 0 0 0 0 0 0 0 0 0 0 0 0 0 0 0 0 0 0 0 0 0
0 0 0 0 0 0 0 0 0 0 0 0 0 0 0 0 0 0 0 0 0 0 0 0 0 0 0 0 0 0 0 0 0 0 0 0 0 0 0 0 0 0 0
0 0 0 0 0 0 0 0 0 0 0 0 0 0 0 0 0 0 0 0 0 0 0 0 0 0 0 0 0 0 0 0 0 0 0 0 0 0 0 0 0 0 0
0 0 0 0 0 0 0 0 0 0 0 0 0 0 0 0 0 0 0 0 0 0 0 0 0 0 0 0 0 0 0 0 0 0 0 0 0 0 0 0 0 0 0
0 0 0 0 0 0 0 0 0 0 0 0 0 0 0 0 0 0 0 0 0 0 0 0 0 0 0 0 0 0 0 0 0 0 0 0 0 0 0 0 0 0 0
0 0 0 0 0 0 0 0 0 0 0 0 0 0 0 0 0 0 0 0 0 0 0 0 0 0 0 0 0 0 0 0 0 0 0 0 0 0 0 0 0 0 0
0 0 0 0 0 0 0 0 0 0 0 0 0 0 0 0 0 0 0 0 0 0 0 0 0 0 0 0 0 0 0 0 0 0 0 0 0 0 0 0 0 0 0
0 0 0 0 0 0 0 0 0 0 0 0 0 0 0 0 0 0 0 0 0 0 0 0 0 0 0 0 0 0 0 0 0 0 0 0 0 0 0 0 0 0 0
0 0 0 0 0 0 0 0 0 0 0 0 0 0 0 -0 -0 -0 0 0 0 -0 -0 -0 -0 0 0 0 0 0 0 0 0 0 0 0 0 0 0 0 0 0 0
0 0 0 0 0 0 0 0 -0 -0 -0 -0 -0 -0 0 0 0 0 0 0 0 0 0 0 0 0 0 0 0 0 0 0 0 0 0 0 0 0 0 0 0 0 0
0 0 0 0 0 -0 -0 -0 -0 -0 -0 -0 0 0 0 0 0 0 0 0 0 0 0 0 0 0 0 0 0 0 0 0 0 0 0 0 0 0 0 0 0 0 0
-0 -0 -0 -0 -0 -0 -0 -0 -0 -0 -0 -0 0 0 0 0 0 0 0 0 0 0 0 0 0 0 0 0 0 0 0 0 0 0 0 0 0 0 0 0 0 0 0
-0 -0 -0 -0 -0 -0 -0 -0 -0 -0 0 0 0 0 0 0 0 0 0 0 0 0 0 0 0 0 0 0 0 0 0 0 0 0 0 0 0 0 0 0 0 0 0
-0 -0 -0 -0 -0 -0 -0 -0 -0 -0 0 0 0 0 0 0 0 0 0 0 0 0 0 0 0 0 0 0 0 0 0 0 0 0 0 0 0 0 0 0 0 0 0
-0 -0 -0 -0 -0 -0 -0 -0 -0 0 0 0 0 0 0 0 0 0 0 0 0 0 0 0 0 0 0 0 0 0 0 0 0 0 0 0 0 0 0 0 0 0 0
0 0 -0 -0 -0 -0 -0 -0 0 0 0 0 0 0 0 0 0 0 0 0 0 0 0 0 0 0 0 0 0 0 0 0 0 0 0 0 0 0 0 0 0 0 0
0 -0 -0 -0 -0 -0 -0 0 0 0 0 0 0 0 0 0 0 0 0 0 0 0 0 0 0 0 0 0 0 0 0 0 0 0 0 0 0 0 0 0 0 0 0
-0 -0 -0 -0 -0 0 0 0 0 0 0 0 0 0 0 0 0 0 0 0 0 0 0 0 0 0 0 0 0 0 0 0 0 0 0 0 0 0 0 0 0 0 0
-0 -0 -0 -0 0 0 0 0 0 0 0 0 0 0 0 0 0 0 0 0 0 0 0 0 0 0 0 0 0 0 0 0 0 0 0 0 0 0 0 0 0 0 0
-0 -0 0 0 0 0 0 0 0 0 0 0 0 0 0 0 0 0 0 0 0 0 0 0 0 0 0 0 0 0 0 0 0 0 0 0 0 0 0 0 0 0 0
-0 -0 0 0 0 0 0 0 0 0 0 0 0 0 0 0 0 0 0 0 0 0 0 0 0 0 0 0 0 0 0 0 0 0 0 0 0 0 0 0 0 0 0
Wind_Speed_500mb
38 37 31 29 27 27 28 28 25 26 24 23 25 26 29 29 29 28 28 25 26 26 26 25 23 22 23 28 25 19 17 16 12 10 10 11 11 8 9 11 10 13 14
38 38 33 31 28 29 25 25 24 24 24 24 24 24 24 26 28 29 30 25 29 30 29 28 27 26 26 34 28 25 22 19 15 12 9 12 11 11 12 13 15 15 16
39 39 37 35 27 27 27 27 27 26 26 25 25 24 26 26 27 29 30 33 38 37 34 33 32 29 28 35 31 29 25 20 17 14 10 13 12 12 15 15 17 18 15
41 41 41 38 29 30 30 32 30 28 31 29 24 26 25 27 31 30 31 36 39 43 40 43 39 37 35 43 38 33 26 21 18 16 14 13 12 13 16 18 25 23 18
43 44 43 38 35 34 35 33 32 31 30 24 29 33 32 32 32 35 39 42 46 46 48 52 51 49 43 51 44 37 22 21 19 17 15 14 13 14 17 22 26 27 15
37 41 41 42 40 37 36 36 35 30 24 27 32 34 36 35 38 38 41 44 49 52 60 63 62 59 55 53 44 33 23 25 19 24 17 18 20 19 23 25 22 21 18
42 39 41 43 41 40 37 36 35 31 34 35 42 44 45 43 45 49 52 53 52 58 66 70 71 66 62 52 36 30 26 25 18 18 19 22 21 20 22 25 19 17 15
34 29 39 36 37 39 39 39 39 39 40 41 44 48 47 43 49 50 53 56 61 61 65 68 66 72 61 40 32 30 25 24 18 17 19 20 18 18 25 23 24 18 11
35 33 35 32 31 31 35 37 42 45 47 46 48 43 17 13 22 31 40 43 50 53 60 61 56 64 59 41 37 35 37 29 25 24 22 23 21 22 22 25 25 14 17
46 46 49 47 46 44 40 40 43 44 51 52 47 43 46 47 32 10 7 6 4 8 2 3 9 19 27 24 17 22 26 24 31 31 31 29 22 22 23 26 20 19 16
48 49 51 52 50 55 51 45 45 44 45 51 44 31 21 13 9 9 7 7 3 5 5 6 12 21 23 18 8 21 23 38 36 32 32 24 29 26 32 23 17 23 25
54 45 43 54 45 26 29 25 20 19 11 13 9 19 7 9 8 6 3 10 8 4 5 12 20 29 24 28 31 31 37 31 29 28 28 30 27 26 30 33 33 31 30
33 36 33 37 35 32 26 17 14 8 11 13 11 10 7 14 9 12 23 25 19 26 16 9 14 15 26 39 33 33 34 34 27 26 29 28 31 32 35 35 33 29 27
54 49 43 38 38 34 32 29 30 23 17 14 12 11 11 11 15 16 10 5 1 9 23 20 22 31 34 36 36 35 31 29 28 27 33 27 33 32 34 33 28 27 30
53 49 49 49 45 39 34 29 25 17 3 7 12 17 18 20 26 20 18 18 23 27 32 38 40 37 38 40 38 33 32 33 33 31 36 32 32 32 31 29 28 26 27
51 50 49 30 22 15 7 6 6 6 8 9 8 10 11 10 12 14 18 23 26 33 35 36 32 35 35 36 36 37 39 38 35 35 41 32 33 34 29 27 26 25 26
27 26 24 20 16 12 11 11 10 8 8 8 9 11 12 14 15 17 19 23 25 29 37 39 36 36 38 38 37 38 40 38 36 38 40 36 35 34 32 29 26 26 26
27 28 27 24 24 21 20 18 15 12 13 14 14 14 15 16 18 20 23 24 26 29 32 34 38 40 41 40 40 42 41 39 38 38 39 36 34 34 31 28 27 25 27
33 32 31 28 28 25 23 21 20 19 20 21 21 22 24 25 27 29 30 30 31 32 35 40 44 44 43 43 45 44 44 43 40 40 41 41 34 33 33 30 26 27 26
33 32 29 28 26 25 23 22 21 22 23 25 26 28 29 30 32 34 35 36 38 39 42 44 45 46 47 46 47 49 49 47 44 42 42 39 37 35 32 32 26 27 26
31 29 27 25 25 24 23 24 25 26 28 30 32 34 35 37 38 40 41 42 44 45 48 49 48 49 50 51 53 51 51 47 46 45 43 41 40 37 35 32 27 26 25
31 27 26 26 27 26 27 29 31 32 34 35 35 37 39 41 43 45 47 48 48 48 48 50 53 56 57 55 54 52 52 52 51 49 45 43 41 39 38 34 32 29 26
26 28 28 27 26 26 28 31 33 35 36 39 41 43 42 44 47 49 49 47 48 51 53 55 57 55 57 52 49 49 50 51 52 42 28 35 40 40 39 36 35 32 26
24 25 27 30 32 34 35 36 39 41 43 44 46 46 48 47 50 51 52 54 56 58 58 57 57 56 53 49 47 44 42 42 47 45 43 37 33 37 40 38 35 32 28
23 26 28 30 31 33 38 43 48 52 54 52 51 52 54 54 51 52 58 60 61 61 61 63 57 51 47 43 38 36 39 42 43 44 42 39 37 35 39 38 35 34 28
27 27 27 32 37 40 47 51 56 61 66 70 64 62 59 59 56 53 57 61 65 63 63 59 51 44 36 34 33 31 31 30 36 34 36 40 38 30 22 37 36 35 26
Wind_Direction_500mb
233 225 220 217 218 224 228 235 237 237 240 242 241 241 238 243 244 246 249 253 255 263 269 272 278 263 248 238 236 227 261 277 270 269 272 272 273 272 265 275 290 303 313
235 228 224 220 224 233 233 235 236 237 241 246 247 250 250 252 253 253 254 261 262 267 270 269 272 263 238 225 228 235 248 263 242 241 250 263 267 262 262 276 281 300 306
231 231 229 226 231 232 234 235 231 238 243 247 254 258 261 260 258 257 260 254 264 260 265 269 265 255 240 221 225 233 252 250 238 247 247 269 268 267 266 279 282 292 308
233 235 232 230 234 241 240 237 239 246 252 253 265 268 267 265 265 260 266 270 262 265 262 262 264 256 243 213 227 235 250 241 239 252 254 269 275 282 282 285 288 295 302
236 236 237 238 243 242 240 243 241 237 252 268 268 269 274 278 275 271 252 261 264 267 266 262 261 248 232 219 229 241 230 241 243 243 245 260 262 267 270 278 285 296 301
234 233 239 238 236 238 240 239 239 236 250 262 273 278 274 267 263 261 261 266 266 266 265 264 263 242 227 219 225 253 249 250 241 245 242 253 260 260 265 266 276 292 290
237 236 238 236 235 240 243 242 238 240 248 257 268 273 274 272 270 268 266 265 266 261 261 262 262 239 215 211 219 234 240 234 237 260 267 264 275 267 265 278 273 271 278
220 234 240 239 240 243 244 240 238 243 251 256 262 272 277 275 270 271 268 264 262 261 262 246 252 207 207 205 200 209 203 260 262 273 263 264 261 253 259 265 268 268 249
218 230 233 236 247 250 251 250 247 247 258 262 261 267 269 240 263 257 255 251 247 243 238 228 209 192 195 218 213 226 222 252 267 266 266 268 265 254 257 255 266 247 249
218 231 238 239 240 239 241 245 248 248 247 258 266 272 273 284 273 246 260 257 12 330 343 236 230 189 178 213 255 241 255 262 259 254 280 254 252 249 230 246 258 251 253
221 229 238 245 248 248 243 250 261 262 251 259 260 260 264 250 229 253 226 222 265 295 336 339 286 266 264 221 285 310 272 274 265 269 262 253 251 223 237 248 243 255 267
230 239 248 250 253 231 234 218 215 234 233 241 249 265 294 252 251 267 240 229 264 325 304 346 289 295 292 264 262 271 274 269 270 269 253 255 244 243 240 253 264 269 277
143 152 154 142 159 146 145 136 113 101 94 91 85 74 40 350 357 59 65 45 27 28 352 322 298 314 278 274 270 270 275 277 267 264 260 254 250 245 248 256 265 273 276
83 85 88 88 88 85 80 74 64 60 51 47 18 4 32 48 65 58 285 320 9 255 245 245 249 259 267 268 271 272 270 272 269 265 265 264 260 250 251 258 263 269 277
83 81 75 67 67 65 64 80 85 77 60 294 295 304 301 295 276 272 273 274 262 265 271 270 264 271 274 272 273 270 269 269 271 270 265 261 252 256 255 258 267 271 271
78 75 73 76 74 70 54 33 20 4 352 340 321 302 304 301 291 281 274 269 262 259 265 279 271 273 272 273 272 270 270 269 267 261 260 258 253 255 261 266 268 267 270
86 82 80 78 77 71 68 58 45 23 5 359 347 335 324 311 303 296 288 278 271 265 265 274 277 278 278 275 272 269 263 262 261 260 258 258 256 265 266 267 265 267 271
91 87 84 79 76 68 58 54 43 31 17 6 354 342 330 318 306 301 295 291 285 276 273 273 279 283 280 276 270 264 260 258 258 251 254 258 258 262 266 266 266 267 270
75 72 70 68 64 59 52 43 32 19 8 0 349 341 333 322 312 304 298 292 288 283 281 285 285 284 281 276 270 266 259 258 253 250 252 256 255 257 262 267 271 272 275
74 71 65 59 56 47 37 27 13 3 352 345 339 331 323 315 309 301 297 293 286 283 285 286 286 285 281 276 269 263 259 259 256 250 249 253 255 254 261 270 270 270 266
74 69 62 53 44 34 21 11 360 351 343 339 333 326 319 313 308 303 299 296 293 291 290 288 286 283 280 277 275 272 265 258 253 251 251 250 252 257 256 263 267 265 265
62 56 50 41 31 21 10 2 354 347 340 333 329 321 316 312 307 302 299 298 295 293 291 289 287 283 280 277 274 271 262 252 249 250 250 249 254 256 256 257 260 264 265
52 42 31 23 14 6 357 350 346 340 335 332 328 326 323 318 312 306 303 300 298 295 293 289 287 287 286 285 281 271 263 255 253 254 262 254 252 253 253 254 257 260 265
33 25 16 8 0 353 346 339 333 329 328 325 321 322 319 318 313 309 305 304 301 299 296 294 291 289 283 282 277 272 262 256 254 253 254 256 254 254 254 253 249 256 266
24 15 5 1 356 348 339 335 331 328 325 323 319 319 316 312 311 307 304 307 304 302 300 295 289 286 283 279 272 267 261 251 248 254 253 253 253 254 251 247 243 246 261
8 5 1 354 346 341 336 330 325 322 322 320 318 314 308 303 302 301 300 301 301 301 297 290 288 286 279 268 264 261 255 257 261 268 265 248 251 249 249 247 238 241 232
Wind_Speed_850mb
38 37 31 29 27 27 28 28 25 26 24 23 25 26 29 29 29 28 28 25 26 26 26 25 23 22 23 28 25 19 17 16 12 10 10 11 11 8 9 11 10 13 14
38 38 33 31 28 29 25 25 24 24 24 24 24 24 24 26 28 29 30 25 29 30 29 28 27 26 26 34 28 25 22 19 15 12 9 12 11 11 12 13 15 15 16
39 39 37 35 27 27 27 27 27 26 26 25 25 24 26 26 27 29 30 33 38 37 34 33 32 29 28 35 31 29 25 20 17 14 10 13 12 12 15 15 17 18 15
41 41 41 38 29 30 30 32 30 28 31 29 24 26 25 27 31 30 31 36 39 43 40 43 39 37 35 43 38 33 26 21 18 16 14 13 12 13 16 18 25 23 18
43 44 43 38 35 34 35 33 32 31 30 24 29 33 32 32 32 35 39 42 46 46 48 52 51 49 43 51 44 37 22 21 19 17 15 14 13 14 17 22 26 27 15
37 41 41 42 40 37 36 36 35 30 24 27 32 34 36 35 38 38 41 44 49 52 60 63 62 59 55 53 44 33 23 25 19 24 17 18 20 19 23 25 22 21 18
42 39 41 43 41 40 37 36 35 31 34 35 42 44 45 43 45 49 52 53 52 58 66 70 71 66 62 52 36 30 26 25 18 18 19 22 21 20 22 25 19 17 15
34 29 39 36 37 39 39 39 39 39 40 41 44 48 47 43 49 50 53 56 61 61 65 68 66 72 61 40 32 30 25 24 18 17 19 20 18 18 25 23 24 18 11
35 33 35 32 31 31 35 37 42 45 47 46 48 43 17 13 22 31 40 43 50 53 60 61 56 64 59 41 37 35 37 29 25 24 22 23 21 22 22 25 25 14 17
46 46 49 47 46 44 40 40 43 44 51 52 47 43 46 47 32 10 7 6 4 8 2 3 9 19 27 24 17 22 26 24 31 31 31 29 22 22 23 26 20 19 16
48 49 51 52 50 55 51 45 45 44 45 51 44 31 21 13 9 9 7 7 3 5 5 6 12 21 23 18 8 21 23 38 36 32 32 24 29 26 32 23 17 23 25
54 45 43 54 45 26 29 25 20 19 11 13 9 19 7 9 8 6 3 10 8 4 5 12 20 29 24 28 31 31 37 31 29 28 28 30 27 26 30 33 33 31 30
33 36 33 37 35 32 26 17 14 8 11 13 11 10 7 14 9 12 23 25 19 26 16 9 14 15 26 39 33 33 34 34 27 26 29 28 31 32 35 35 33 29 27
54 49 43 38 38 34 32 29 30 23 17 14 12 11 11 11 15 16 10 5 1 9 23 20 22 31 34 36 36 35 31 29 28 27 33 27 33 32 34 33 28 27 30
53 49 49 49 45 39 34 29 25 17 3 7 12 17 18 20 26 20 18 18 23 27 32 38 40 37 38 40 38 33 32 33 33 31 36 32 32 32 31 29 28 26 27
51 50 49 30 22 15 7 6 6 6 8 9 8 10 11 10 12 14 18 23 26 33 35 36 32 35 35 36 36 37 39 38 35 35 41 32 33 34 29 27 26 25 26
27 26 24 20 16 12 11 11 10 8 8 8 9 11 12 14 15 17 19 23 25 29 37 39 36 36 38 38 37 38 40 38 36 38 40 36 35 34 32 29 26 26 26
27 28 27 24 24 21 20 18 15 12 13 14 14 14 15 16 18 20 23 24 26 29 32 34 38 40 41 40 40 42 41 39 38 38 39 36 34 34 31 28 27 25 27
33 32 31 28 28 25 23 21 20 19 20 21 21 22 24 25 27 29 30 30 31 32 35 40 44 44 43 43 45 44 44 43 40 40 41 41 34 33 33 30 26 27 26
33 32 29 28 26 25 23 22 21 22 23 25 26 28 29 30 32 34 35 36 38 39 42 44 45 46 47 46 47 49 49 47 44 42 42 39 37 35 32 32 26 27 26
31 29 27 25 25 24 23 24 25 26 28 30 32 34 35 37 38 40 41 42 44 45 48 49 48 49 50 51 53 51 51 47 46 45 43 41 40 37 35 32 27 26 25
31 27 26 26 27 26 27 29 31 32 34 35 35 37 39 41 43 45 47 48 48 48 48 50 53 56 57 55 54 52 52 52 51 49 45 43 41 39 38 34 32 29 26
26 28 28 27 26 26 28 31 33 35 36 39 41 43 42 44 47 49 49 47 48 51 53 55 57 55 57 52 49 49 50 51 52 42 28 35 40 40 39 36 35 32 26
24 25 27 30 32 34 35 36 39 41 43 44 46 46 48 47 50 51 52 54 56 58 58 57 57 56 53 49 47 44 42 42 47 45 43 37 33 37 40 38 35 32 28
23 26 28 30 31 33 38 43 48 52 54 52 51 52 54 54 51 52 58 60 61 61 61 63 57 51 47 43 38 36 39 42 43 44 42 39 37 35 39 38 35 34 28
27 27 27 32 37 40 47 51 56 61 66 70 64 62 59 59 56 53 57 61 65 63 63 59 51 44 36 34 33 31 31 30 36 34 36 40 38 30 22 37 36 35 26
Wind_Direction_850mb
233 225 220 217 218 224 228 235 237 237 240 242 241 241 238 243 244 246 249 253 255 263 269 272 278 263 248 238 236 227 261 277 270 269 272 272 273 272 265 275 290 303 313
235 228 224 220 224 233 233 235 236 237 241 246 247 250 250 252 253 253 254 261 262 267 270 269 272 263 238 225 228 235 248 263 242 241 250 263 267 262 262 276 281 300 306
231 231 229 226 231 232 234 235 231 238 243 247 254 258 261 260 258 257 260 254 264 260 265 269 265 255 240 221 225 233 252 250 238 247 247 269 268 267 266 279 282 292 308
233 235 232 230 234 241 240 237 239 246 252 253 265 268 267 265 265 260 266 270 262 265 262 262 264 256 243 213 227 235 250 241 239 252 254 269 275 282 282 285 288 295 302
236 236 237 238 243 242 240 243 241 237 252 268 268 269 274 278 275 271 252 261 264 267 266 262 261 248 232 219 229 241 230 241 243 243 245 260 262 267 270 278 285 296 301
234 233 239 238 236 238 240 239 239 236 250 262 273 278 274 267 263 261 261 266 266 266 265 264 263 242 227 219 225 253 249 250 241 245 242 253 260 260 265 266 276 292 290
237 236 238 236 235 240 243 242 238 240 248 257 268 273 274 272 270 268 266 265 266 261 261 262 262 239 215 211 219 234 240 234 237 260 267 264 275 267 265 278 273 271 278
220 234 240 239 240 243 244 240 238 243 251 256 262 272 277 275 270 271 268 264 262 261 262 246 252 207 207 205 200 209 203 260 262 273 263 264 261 253 259 265 268 268 249
218 230 233 236 247 250 251 250 247 247 258 262 261 267 269 240 263 257 255 251 247 243 238 228 209 192 195 218 213 226 222 252 267 266 266 268 265 254 257 255 266 247 249
218 231 238 239 240 239 241 245 248 248 247 258 266 272 273 284 273 246 260 257 12 330 343 236 230 189 178 213 255 241 255 262 259 254 280 254 252 249 230 246 258 251 253
221 229 238 245 248 248 243 250 261 262 251 259 260 260 264 250 229 253 226 222 265 295 336 339 286 266 264 221 285 310 272 274 265 269 262 253 251 223 237 248 243 255 267
230 239 248 250 253 231 234 218 215 234 233 241 249 265 294 252 251 267 240 229 264 325 304 346 289 295 292 264 262 271 274 269 270 269 253 255 244 243 240 253 264 269 277
143 152 154 142 159 146 145 136 113 101 94 91 85 74 40 350 357 59 65 45 27 28 352 322 298 314 278 274 270 270 275 277 267 264 260 254 250 245 248 256 265 273 276
83 85 88 88 88 85 80 74 64 60 51 47 18 4 32 48 65 58 285 320 9 255 245 245 249 259 267 268 271 272 270 272 269 265 265 264 260 250 251 258 263 269 277
83 81 75 67 67 65 64 80 85 77 60 294 295 304 301 295 276 272 273 274 262 265 271 270 264 271 274 272 273 270 269 269 271 270 265 261 252 256 255 258 267 271 271
78 75 73 76 74 70 54 33 20 4 352 340 321 302 304 301 291 281 274 269 262 259 265 279 271 273 272 273 272 270 270 269 267 261 260 258 253 255 261 266 268 267 270
86 82 80 78 77 71 68 58 45 23 5 359 347 335 324 311 303 296 288 278 271 265 265 274 277 278 278 275 272 269 263 262 261 260 258 258 256 265 266 267 265 267 271
91 87 84 79 76 68 58 54 43 31 17 6 354 342 330 318 306 301 295 291 285 276 273 273 279 283 280 276 270 264 260 258 258 251 254 258 258 262 266 266 266 267 270
75 72 70 68 64 59 52 43 32 19 8 0 349 341 333 322 312 304 298 292 288 283 281 285 285 284 281 276 270 266 259 258 253 250 252 256 255 257 262 267 271 272 275
74 71 65 59 56 47 37 27 13 3 352 345 339 331 323 315 309 301 297 293 286 283 285 286 286 285 281 276 269 263 259 259 256 250 249 253 255 254 261 270 270 270 266
74 69 62 53 44 34 21 11 360 351 343 339 333 326 319 313 308 303 299 296 293 291 290 288 286 283 280 277 275 272 265 258 253 251 251 250 252 257 256 263 267 265 265
62 56 50 41 31 21 10 2 354 347 340 333 329 321 316 312 307 302 299 298 295 293 291 289 287 283 280 277 274 271 262 252 249 250 250 249 254 256 256 257 260 264 265
52 42 31 23 14 6 357 350 346 340 335 332 328 326 323 318 312 306 303 300 298 295 293 289 287 287 286 285 281 271 263 255 253 254 262 254 252 253 253 254 257 260 265
33 25 16 8 0 353 346 339 333 329 328 325 321 322 319 318 313 309 305 304 301 299 296 294 291 289 283 282 277 272 262 256 254 253 254 256 254 254 254 253 249 256 266
24 15 5 1 356 348 339 335 331 328 325 323 319 319 316 312 311 307 304 307 304 302 300 295 289 286 283 279 272 267 261 251 248 254 253 253 253 254 251 247 243 246 261
8 5 1 354 346 341 336 330 325 322 322 320 318 314 308 303 302 301 300 301 301 301 297 290 288 286 279 268 264 261 255 257 261 268 265 248 251 249 249 247 238 241 232